period_start,C,m1,H,J0,J1,J2,J3,J4,J5,JA,JB,JC,JD,JJ,JK,JN,#
2014-09-11 00:02:06,0.02,1.25,0.00,26.79,31.02,33.31,9.41,41.37,1009.29,2020.93,2928.85,2958.03,3163.36,500.38,487.12,42.46,0000 0000 0000 0000 000000
2014-09-11 00:07:07,0.02,1.25,0.00,26.81,31.02,33.31,9.41,41.45,1009.29,2020.97,2928.43,2958.01,3163.16,500.08,486.94,42.51,0000 0000 0000 0000 000000
2014-09-11 00:12:09,0.01,1.25,0.00,26.82,31.02,33.31,9.38,41.42,1009.29,2020.97,2928.07,2958.00,3163.06,500.05,487.07,42.55,0000 0000 0000 0000 000000
2014-09-11 00:17:10,0.00,1.25,0.00,26.82,31.02,33.32,9.44,41.42,1009.29,2020.95,2928.01,2958.00,3163.00,500.23,486.92,42.59,0000 0000 0000 0000 000000
2014-09-11 00:22:11,0.00,1.25,0.00,26.80,31.02,33.32,9.42,41.58,1009.26,2020.97,2927.99,2958.00,3163.00,500.21,486.83,42.63,0000 0000 0000 0000 000000
2014-09-11 00:27:13,0.00,1.25,0.00,26.82,31.02,33.33,9.43,41.42,1009.24,2020.94,2927.89,2957.96,3162.97,499.73,486.55,42.67,0000 0000 0000 0000 000000
2014-09-11 00:32:14,0.02,1.25,0.00,26.83,31.02,33.32,9.39,41.55,1009.25,2020.95,2927.34,2957.80,3162.90,499.79,486.73,42.71,0000 0000 0000 0000 000000
2014-09-11 00:37:15,0.03,1.25,0.00,26.83,31.03,33.33,9.48,41.61,1008.99,2020.95,2927.03,2957.39,3162.49,499.98,486.82,42.76,0000 0000 0000 0000 000000
2014-09-11 00:42:16,0.01,1.25,0.00,26.84,31.03,33.34,9.35,41.44,1008.82,2020.94,2927.00,2957.11,3162.10,499.74,486.31,42.80,0000 0000 0000 0000 000000
2014-09-11 00:47:17,0.00,1.25,0.00,26.85,31.04,33.34,9.36,41.52,1008.85,2020.95,2926.97,2957.03,3162.02,500.25,486.94,42.84,0000 0000 0000 0000 000000
2014-09-11 00:52:18,0.00,1.25,0.00,26.85,31.05,33.35,9.40,41.32,1009.15,2020.93,2926.64,2957.00,3162.00,499.82,486.65,42.88,0000 0000 0000 0000 000000
2014-09-11 00:57:19,0.01,1.25,0.00,26.83,31.05,33.34,9.35,41.53,1009.22,2020.86,2926.12,2956.99,3161.98,499.66,486.49,42.92,0000 0000 0000 0000 000000
2014-09-11 01:02:20,0.01,1.25,0.00,26.84,31.05,33.35,9.47,41.40,1009.05,2020.90,2926.00,2956.96,3161.74,500.28,486.96,42.96,0000 0000 0000 0000 000000
2014-09-11 01:07:21,0.02,1.25,0.00,26.84,31.05,33.35,9.35,41.17,1008.95,2020.81,2925.95,2956.79,3161.23,500.38,487.00,43.01,0000 0000 0000 0000 000000
2014-09-11 01:12:22,0.02,1.26,0.00,26.86,31.06,33.36,9.36,41.31,1008.90,2020.90,2925.82,2956.42,3161.06,499.73,486.29,43.05,0000 0000 0000 0000 000000
2014-09-11 01:17:23,0.01,1.26,0.00,26.87,31.07,33.36,9.40,41.46,1008.84,2020.76,2925.35,2956.07,3161.01,500.03,486.49,43.09,0000 0000 0000 0000 000000
2014-09-11 01:22:25,0.01,1.26,0.00,26.88,31.07,33.37,9.40,41.38,1008.81,2020.71,2925.01,2956.01,3160.99,499.86,486.44,43.13,0000 0000 0000 0000 000000
2014-09-11 01:27:25,-0.04,1.25,0.00,26.88,31.08,33.37,9.32,41.53,1008.80,2020.42,2924.94,2955.99,3160.81,499.64,486.42,43.17,0000 0000 0000 0000 000000
2014-09-11 01:32:27,0.01,1.25,0.00,26.89,31.09,33.38,9.34,41.42,1008.79,2020.20,2924.58,2955.94,3160.25,500.22,486.72,43.21,0000 0000 0000 0000 000000
2014-09-11 01:37:28,0.01,1.25,0.00,26.93,31.10,33.37,9.45,41.42,1008.75,2020.18,2924.21,2955.86,3160.06,499.98,486.27,43.26,0000 0000 0000 0000 000000
2014-09-11 01:42:29,0.01,1.26,0.00,26.91,31.10,33.37,9.32,41.41,1008.68,2020.17,2924.01,2955.47,3160.00,499.54,485.97,43.30,0000 0000 0000 0000 000000
2014-09-11 01:47:31,0.00,1.26,0.00,26.92,31.10,33.37,9.31,41.36,1008.80,2020.08,2923.99,2955.08,3160.00,499.81,486.27,43.34,0000 0000 0000 0000 000000
2014-09-11 01:52:31,0.01,1.26,0.00,26.92,31.10,33.39,9.45,41.48,1008.81,2020.07,2923.81,2955.01,3159.97,500.26,486.78,43.38,0000 0000 0000 0000 000000
2014-09-11 01:57:33,0.02,1.26,0.00,26.95,31.10,33.39,9.41,41.17,1008.84,2020.07,2923.21,2955.00,3159.77,500.06,486.34,43.42,0000 0000 0000 0000 000000
2014-09-11 02:02:34,0.01,1.26,0.00,26.98,31.12,33.40,9.33,41.21,1008.81,2020.03,2923.01,2954.98,3159.13,499.86,486.15,43.46,0000 0000 0000 0000 000000
2014-09-11 02:07:35,0.00,1.26,0.00,27.01,31.12,33.39,9.38,41.33,1008.82,2020.06,2923.00,2954.95,3159.03,500.03,486.23,43.50,0000 0000 0000 0000 000000
2014-09-11 02:12:36,0.01,1.26,0.00,27.03,31.12,33.42,9.40,41.40,1008.80,2020.03,2922.94,2954.65,3159.00,499.88,486.34,43.55,0000 0000 0000 0000 000000
2014-09-11 02:17:37,0.03,1.26,0.00,27.06,31.15,33.43,9.46,41.43,1008.80,2020.04,2922.33,2954.18,3158.99,500.42,486.55,43.59,0000 0000 0000 0000 000000
2014-09-11 02:22:38,0.01,1.26,0.00,27.10,31.15,33.42,9.43,41.42,1008.80,2020.01,2922.06,2954.01,3158.70,500.25,486.36,43.63,0000 0000 0000 0000 000000
2014-09-11 02:27:39,0.01,1.26,0.00,27.12,31.17,33.45,9.43,41.49,1008.71,2020.00,2921.99,2954.00,3158.07,499.67,485.93,43.67,0000 0000 0000 0000 000000
2014-09-11 02:32:41,0.00,1.26,0.00,27.15,31.18,33.46,9.41,41.49,1008.59,2020.01,2921.88,2953.98,3158.01,500.28,486.35,43.71,0000 0000 0000 0000 000000
2014-09-11 02:37:42,0.01,1.26,0.00,27.19,31.20,33.47,9.29,41.35,1008.69,2020.00,2921.30,2953.81,3158.00,499.70,485.69,43.75,0000 0000 0000 0000 000000
2014-09-11 02:42:43,0.02,1.26,0.00,27.20,31.21,33.49,9.43,41.47,1008.78,2020.00,2921.01,2953.19,3157.93,500.26,486.22,43.80,0000 0000 0000 0000 000000
2014-09-11 02:47:44,0.02,1.26,0.00,27.21,31.22,33.51,9.40,41.48,1008.63,2020.00,2920.94,2953.01,3157.24,500.00,485.83,43.84,0000 0000 0000 0000 000000
2014-09-11 02:52:45,0.01,1.26,0.00,27.24,31.24,33.52,9.34,41.38,1008.37,2019.99,2920.46,2952.99,3157.01,499.68,485.23,43.88,0000 0000 0000 0000 000000
2014-09-11 02:57:47,0.01,1.26,0.00,27.22,31.25,33.55,9.43,41.42,1008.44,2019.99,2920.01,2952.90,3156.99,500.29,486.10,43.92,0000 0000 0000 0000 000000
2014-09-11 03:02:48,0.02,1.27,0.00,27.24,31.27,33.56,9.33,41.19,1008.75,2019.98,2919.99,2952.49,3156.90,499.80,485.71,43.96,0000 0000 0000 0000 000000
2014-09-11 03:07:49,0.03,1.27,0.00,27.23,31.28,33.57,9.34,41.26,1008.80,2019.93,2919.51,2952.05,3156.25,499.98,485.95,44.00,0000 0000 0000 0000 000000
2014-09-11 03:12:50,-0.00,1.27,0.00,27.27,31.30,33.58,9.41,41.33,1008.80,2019.85,2919.04,2952.00,3156.00,499.94,485.81,44.04,0000 0000 0000 0000 000000
2014-09-11 03:17:51,0.01,1.27,0.00,27.30,31.31,33.59,9.29,41.50,1008.80,2019.88,2918.91,2951.98,3155.98,499.67,485.50,44.09,0000 0000 0000 0000 000000
2014-09-11 03:22:52,0.03,1.27,0.00,27.34,31.32,33.61,9.27,41.36,1008.80,2019.81,2918.36,2951.69,3155.73,499.93,485.70,44.13,0000 0000 0000 0000 000000
2014-09-11 03:27:54,0.02,1.27,0.00,27.37,31.35,33.62,9.27,41.22,1008.80,2019.73,2918.01,2951.16,3155.18,500.07,485.84,44.17,0000 0000 0000 0000 000000
2014-09-11 03:32:55,-0.05,1.27,0.00,27.38,31.36,33.63,9.33,41.26,1008.80,2019.33,2917.94,2951.01,3155.01,500.41,485.86,44.21,0000 0000 0000 0000 000000
2014-09-11 03:37:56,0.01,1.27,0.00,27.42,31.37,33.65,9.40,41.39,1008.80,2019.21,2917.22,2950.96,3154.91,499.93,485.63,44.25,0000 0000 0000 0000 000000
2014-09-11 03:42:57,0.02,1.27,0.00,27.47,31.39,33.68,9.34,41.32,1008.80,2019.06,2917.00,2950.54,3154.24,499.88,485.35,44.29,0000 0000 0000 0000 000000
2014-09-11 03:47:58,0.01,1.27,0.00,27.48,31.41,33.69,9.37,41.42,1008.80,2019.02,2916.96,2950.08,3154.00,499.82,485.30,44.34,0000 0000 0000 0000 000000
2014-09-11 03:52:59,0.01,1.27,0.00,27.51,31.43,33.70,9.33,41.48,1008.77,2019.01,2916.51,2950.00,3153.95,499.83,485.45,44.38,0000 0000 0000 0000 000000
2014-09-11 03:58:00,0.03,1.27,0.00,27.53,31.46,33.72,9.38,41.32,1008.79,2019.00,2916.02,2949.82,3153.20,499.82,485.47,44.42,0000 0000 0000 0000 000000
2014-09-11 04:03:01,0.02,1.27,0.00,27.55,31.48,33.76,9.38,41.33,1008.80,2019.00,2915.90,2949.27,3153.01,500.36,485.45,44.46,0000 0000 0000 0000 000000
2014-09-11 04:08:03,0.02,1.27,0.00,27.59,31.50,33.77,9.37,41.41,1008.80,2018.99,2915.21,2949.00,3152.97,500.11,485.34,44.50,0000 0000 0000 0000 000000
2014-09-11 04:13:04,0.01,1.27,0.00,27.60,31.52,33.79,9.33,41.48,1008.82,2018.98,2915.00,2948.97,3152.53,500.02,485.45,44.54,0000 0000 0000 0000 000000
2014-09-11 04:18:05,0.03,1.28,0.00,27.61,31.54,33.82,9.38,41.49,1008.81,2018.91,2914.67,2948.48,3152.02,500.22,485.41,44.59,0000 0000 0000 0000 000000
2014-09-11 04:23:06,-0.02,1.28,0.00,27.62,31.56,33.85,9.40,41.52,1008.85,2018.71,2914.04,2948.03,3151.95,499.95,485.39,44.63,0000 0000 0000 0000 000000
2014-09-11 04:28:07,0.00,1.28,0.00,27.61,31.58,33.86,9.44,41.58,1008.83,2018.46,2913.96,2948.00,3151.42,499.94,485.27,44.67,0000 0000 0000 0000 000000
2014-09-11 04:33:09,-0.00,1.28,0.00,27.61,31.60,33.89,9.36,41.55,1008.90,2018.21,2913.32,2947.92,3151.01,499.71,485.26,44.71,0000 0000 0000 0000 000000
2014-09-11 04:38:10,0.01,1.28,0.00,27.64,31.62,33.91,9.34,41.55,1008.87,2018.11,2913.02,2947.32,3150.98,500.02,485.37,44.75,0000 0000 0000 0000 000000
2014-09-11 04:43:11,0.02,1.28,0.00,27.66,31.64,33.92,9.34,41.17,1008.83,2018.01,2912.85,2947.00,3150.42,500.19,485.57,44.79,0000 0000 0000 0000 000000
2014-09-11 04:48:12,0.02,1.28,0.00,27.67,31.65,33.94,9.34,41.18,1008.82,2018.00,2912.24,2946.98,3150.06,500.66,485.83,44.84,0000 0000 0000 0000 000000
2014-09-11 04:53:13,0.02,1.28,0.00,27.69,31.67,33.97,9.34,41.27,1008.81,2018.00,2911.99,2946.49,3149.95,499.92,485.10,44.88,0000 0000 0000 0000 000000
2014-09-11 04:58:15,0.03,1.28,0.00,27.70,31.69,33.98,9.36,41.32,1008.80,2018.00,2911.62,2946.03,3149.36,499.59,484.94,44.92,0000 0000 0000 0000 000000
2014-09-11 05:03:16,0.01,1.28,0.00,27.71,31.70,33.99,9.44,41.63,1008.80,2017.99,2911.04,2946.00,3149.01,500.18,485.36,44.96,0000 0000 0000 0000 000000
2014-09-11 05:08:17,0.01,1.28,0.00,27.72,31.72,34.01,9.37,41.42,1008.80,2017.95,2910.93,2945.78,3148.96,500.23,485.39,45.00,0000 0000 0000 0000 000000
2014-09-11 05:13:17,0.06,1.28,0.00,27.71,31.73,34.02,9.43,41.45,1008.80,2017.94,2910.30,2945.23,3148.44,499.86,485.03,45.04,0000 0000 0000 0000 000000
2014-09-11 05:18:18,0.00,1.28,0.00,27.72,31.75,34.04,9.37,41.24,1008.80,2017.87,2910.00,2945.01,3148.02,500.11,485.05,45.08,0000 0000 0000 0000 000000
2014-09-11 05:23:20,-0.01,1.28,0.00,27.73,31.76,34.05,9.39,41.27,1008.80,2017.78,2909.75,2944.99,3147.99,500.16,485.18,45.13,0000 0000 0000 0000 000000
2014-09-11 05:28:21,0.00,1.28,0.00,27.74,31.77,34.07,9.38,41.38,1008.80,2017.53,2909.12,2944.85,3147.88,500.44,485.44,45.17,0000 0000 0000 0000 000000
2014-09-11 05:33:22,0.03,1.28,0.00,27.75,31.79,34.07,9.32,41.27,1008.80,2017.35,2908.97,2944.23,3147.21,499.66,484.75,45.21,0000 0000 0000 0000 000000
2014-09-11 05:38:24,0.00,1.28,0.00,27.76,31.80,34.09,9.39,41.27,1008.80,2017.15,2908.47,2944.01,3147.00,500.42,485.45,45.25,0000 0000 0000 0000 000000
2014-09-11 05:43:25,-0.00,1.28,0.00,27.76,31.81,34.10,9.40,41.14,1008.80,2017.10,2908.02,2944.00,3146.83,499.93,484.83,45.29,0000 0000 0000 0000 000000
2014-09-11 05:48:26,0.04,1.29,0.00,27.77,31.82,34.10,9.36,41.16,1008.80,2017.03,2907.47,2943.70,3146.11,499.94,484.96,45.33,0000 0000 0000 0000 000000
2014-09-11 05:53:27,0.02,1.29,0.00,27.77,31.83,34.12,9.34,41.26,1008.80,2017.01,2907.01,2943.05,3145.98,499.83,484.93,45.38,0000 0000 0000 0000 000000
2014-09-11 05:58:27,0.01,1.29,0.00,27.79,31.85,34.13,9.38,41.24,1008.80,2017.00,2906.88,2942.99,3145.54,499.96,485.00,45.42,0000 0000 0000 0000 000000
2014-09-11 06:03:29,0.04,1.29,0.00,27.78,31.85,34.14,9.37,41.31,1008.80,2017.00,2906.14,2942.67,3145.02,500.12,485.16,45.46,0000 0000 0000 0000 000000
2014-09-11 06:08:29,0.01,1.29,0.00,27.79,31.87,34.15,9.36,41.20,1008.79,2017.00,2905.94,2942.06,3144.92,499.96,484.98,45.50,0000 0000 0000 0000 000000
2014-09-11 06:13:30,0.03,1.29,0.00,27.78,31.87,34.16,9.38,41.21,1008.79,2017.00,2905.32,2942.00,3144.36,500.21,485.36,45.54,0000 0000 0000 0000 000000
2014-09-11 06:18:32,0.00,1.29,0.00,27.80,31.87,34.17,9.41,40.62,1008.80,2016.99,2905.01,2941.97,3144.03,500.02,485.05,45.58,0000 0000 0000 0000 000000
2014-09-11 06:23:33,0.02,1.29,0.00,27.80,31.89,34.18,9.36,40.85,1008.78,2016.99,2904.82,2941.61,3143.97,500.38,485.39,45.63,0000 0000 0000 0000 000000
2014-09-11 06:28:34,0.03,1.29,0.00,27.81,31.90,34.18,9.33,40.93,1008.76,2016.99,2904.09,2941.08,3143.57,499.93,484.88,45.67,0000 0000 0000 0000 000000
2014-09-11 06:33:35,0.01,1.30,0.00,27.82,31.90,34.19,9.32,40.92,1008.60,2016.99,2903.95,2941.00,3143.05,500.00,484.99,45.71,0000 0000 0000 0000 000000
2014-09-11 06:38:36,0.02,1.30,0.00,27.80,31.90,34.21,9.33,40.91,1008.40,2016.98,2903.34,2940.91,3142.99,499.82,484.49,45.75,0000 0000 0000 0000 000000
2014-09-11 06:43:37,0.04,1.30,0.00,27.80,31.91,34.21,9.38,40.99,1008.49,2016.98,2902.99,2940.27,3142.54,500.51,485.29,45.79,0000 0000 0000 0000 000000
2014-09-11 06:48:38,0.01,1.30,0.00,27.79,31.92,34.21,9.36,40.98,1008.58,2016.97,2902.65,2940.01,3142.04,500.41,485.26,45.83,0000 0000 0000 0000 000000
2014-09-11 06:53:39,0.01,1.30,0.00,27.79,31.92,34.20,9.36,40.80,1008.74,2016.98,2902.03,2939.99,3141.99,500.07,485.09,45.87,0000 0000 0000 0000 000000
2014-09-11 06:58:40,0.01,1.30,0.00,27.77,31.92,34.23,9.32,40.90,1008.80,2016.97,2901.91,2939.89,3141.77,500.15,485.25,45.92,0000 0000 0000 0000 000000
2014-09-11 07:03:41,0.05,1.30,0.00,27.77,31.92,34.22,9.31,41.15,1008.78,2016.97,2901.14,2939.24,3141.10,499.85,484.65,45.96,0000 0000 0000 0000 000000
2014-09-11 07:08:42,0.01,1.30,0.00,27.78,31.92,34.22,9.27,40.98,1008.66,2016.96,2900.90,2939.00,3141.00,499.49,484.51,46.00,0000 0000 0000 0000 000000
2014-09-11 07:13:44,0.03,1.30,0.00,27.77,31.93,34.22,9.31,41.14,1008.68,2016.93,2900.08,2938.88,3140.41,499.89,484.92,46.04,0000 0000 0000 0000 000000
2014-09-11 07:18:45,0.05,1.31,0.00,27.79,31.94,34.22,9.36,41.14,1008.57,2016.93,2899.46,2938.15,3140.01,499.68,484.51,46.08,0000 0000 0000 0000 000000
2014-09-11 07:23:46,0.01,1.31,0.00,27.78,31.95,34.23,9.35,41.18,1008.54,2016.89,2899.00,2937.99,3139.78,499.78,484.68,46.12,0000 0000 0000 0000 000000
2014-09-11 07:28:47,0.03,1.31,0.00,27.78,31.95,34.23,9.41,41.10,1008.79,2016.80,2898.48,2937.83,3139.10,500.25,485.25,46.17,0000 0000 0000 0000 000000
2014-09-11 07:33:49,0.02,1.31,0.00,27.78,31.95,34.23,9.35,41.14,1008.80,2016.74,2898.01,2937.18,3138.96,499.77,484.69,46.21,0000 0000 0000 0000 000000
2014-09-11 07:38:50,0.04,1.31,0.00,27.77,31.95,34.24,9.39,41.14,1008.80,2016.75,2897.50,2937.00,3138.52,500.16,485.22,46.25,0000 0000 0000 0000 000000
2014-09-11 07:43:51,-0.01,1.31,0.00,27.77,31.95,34.23,9.36,41.35,1008.80,2016.61,2897.01,2936.97,3138.03,500.07,485.17,46.29,0000 0000 0000 0000 000000
2014-09-11 07:48:52,0.06,1.31,0.00,27.77,31.95,34.23,9.42,40.96,1008.80,2016.76,2896.63,2936.58,3138.00,500.23,485.33,46.33,0000 0000 0000 0000 000000
2014-09-11 07:53:54,0.02,1.31,0.00,27.77,31.95,34.24,9.37,40.98,1008.80,2016.65,2896.02,2936.07,3137.48,499.78,484.91,46.37,0000 0000 0000 0000 000000
2014-09-11 07:58:55,0.03,1.31,0.00,27.77,31.95,34.24,9.36,41.33,1008.80,2016.79,2895.71,2935.99,3137.02,500.20,485.19,46.42,0000 0000 0000 0000 000000
2014-09-11 08:03:56,-0.02,1.31,0.00,27.77,31.95,34.24,9.32,41.12,1008.80,2016.63,2895.05,2935.94,3136.97,499.65,484.79,46.46,0000 0000 0000 0000 000000
2014-09-11 08:08:57,0.03,1.32,0.00,27.78,31.95,34.25,9.44,41.31,1008.80,2016.38,2894.70,2935.27,3136.35,500.19,485.31,46.50,0000 0000 0000 0000 000000
2014-09-11 08:13:59,0.01,1.32,0.00,27.79,31.95,34.24,9.28,41.09,1008.81,2016.28,2894.04,2935.01,3136.01,499.64,484.58,46.54,0000 0000 0000 0000 000000
2014-09-11 08:18:59,0.02,1.32,0.00,27.75,31.96,34.25,9.39,41.16,1008.81,2016.43,2893.90,2934.98,3135.99,499.74,484.96,46.58,0000 0000 0000 0000 000000
2014-09-11 08:24:01,0.03,1.32,0.00,27.76,31.96,34.26,9.40,41.24,1008.82,2016.40,2893.13,2934.83,3135.51,500.19,485.38,46.62,0000 0000 0000 0000 000000
2014-09-11 08:29:02,0.03,1.32,0.00,27.77,31.96,34.25,9.28,41.13,1008.82,2016.40,2892.90,2934.24,3135.03,500.26,485.36,46.66,0000 0000 0000 0000 000000
2014-09-11 08:34:03,0.03,1.32,0.00,27.77,31.96,34.24,9.37,41.03,1008.84,2016.42,2892.21,2934.01,3135.00,500.03,485.08,46.71,0000 0000 0000 0000 000000
2014-09-11 08:39:05,-0.02,1.32,0.00,27.78,31.97,34.23,9.35,40.79,1008.87,2016.27,2891.96,2933.98,3134.90,499.74,484.96,46.75,0000 0000 0000 0000 000000
2014-09-11 08:44:06,0.05,1.32,0.00,27.82,31.97,34.25,9.34,41.17,1009.02,2016.22,2891.24,2933.67,3134.23,499.90,485.11,46.79,0000 0000 0000 0000 000000
2014-09-11 08:49:07,0.01,1.32,0.00,27.81,31.97,34.24,9.32,40.91,1008.98,2016.16,2890.99,2933.08,3134.00,499.83,485.03,46.83,0000 0000 0000 0000 000000
2014-09-11 08:54:08,0.02,1.32,0.00,27.79,31.97,34.26,9.45,41.15,1008.97,2016.12,2890.28,2933.00,3133.89,500.50,485.54,46.87,0000 0000 0000 0000 000000
2014-09-11 08:59:09,0.03,1.32,0.00,27.81,31.97,34.27,9.30,40.95,1009.08,2016.19,2890.00,2932.98,3133.39,499.69,484.86,46.91,0000 0000 0000 0000 000000
2014-09-11 09:04:11,0.02,1.33,0.00,27.81,31.97,34.26,9.45,41.23,1009.21,2016.20,2889.79,2932.79,3133.02,500.05,485.24,46.96,0000 0000 0000 0000 000000
2014-09-11 09:09:12,0.04,1.33,0.00,27.80,31.97,34.27,9.32,40.81,1009.02,2016.18,2889.08,2932.16,3132.99,499.75,484.86,47.00,0000 0000 0000 0000 000000
2014-09-11 09:14:13,0.01,1.33,0.00,27.79,31.97,34.26,9.25,41.09,1008.98,2016.19,2888.88,2932.01,3132.72,499.62,484.87,47.04,0000 0000 0000 0000 000000
2014-09-11 09:19:15,0.04,1.33,0.00,27.78,31.97,34.27,9.30,41.05,1009.22,2016.23,2888.11,2931.99,3132.06,500.03,485.29,47.08,0000 0000 0000 0000 000000
2014-09-11 09:24:16,-0.01,1.33,0.00,27.78,31.97,34.27,9.38,40.96,1009.26,2016.15,2887.91,2931.80,3131.98,500.04,485.41,47.12,0000 0000 0000 0000 000000
2014-09-11 09:29:17,0.05,1.33,0.00,27.78,31.97,34.28,9.40,41.25,1009.28,2016.21,2887.25,2931.18,3131.88,500.15,485.47,47.16,0000 0000 0000 0000 000000
2014-09-11 09:34:18,0.02,1.33,0.00,27.77,31.97,34.27,9.34,40.98,1009.28,2016.20,2887.00,2931.02,3131.23,500.05,485.30,47.21,0000 0000 0000 0000 000000
2014-09-11 09:39:19,0.02,1.33,0.00,27.74,31.97,34.28,9.29,40.99,1009.29,2016.21,2886.60,2930.99,3131.01,499.90,485.19,47.25,0000 0000 0000 0000 000000
2014-09-11 09:44:20,0.00,1.33,0.00,27.74,31.97,34.27,9.33,40.99,1009.29,2016.11,2886.02,2930.84,3130.91,500.04,485.39,47.29,0000 0000 0000 0000 000000
2014-09-11 09:49:21,0.04,1.33,0.00,27.73,31.97,34.26,9.31,40.92,1009.29,2016.11,2885.82,2930.29,3130.36,499.68,485.02,47.33,0000 0000 0000 0000 000000
2014-09-11 09:54:22,0.02,1.34,0.00,27.73,31.97,34.27,9.32,41.15,1009.29,2016.11,2885.16,2930.05,3130.05,499.95,485.33,47.37,0000 0000 0000 0000 000000
2014-09-11 09:59:23,0.00,1.34,0.00,27.72,31.97,34.26,9.37,41.33,1009.30,2016.07,2884.97,2930.00,3129.99,500.14,485.61,47.41,0000 0000 0000 0000 000000
2014-09-11 10:04:25,0.02,1.34,0.00,27.71,31.97,34.27,9.33,41.22,1009.30,2016.06,2884.39,2929.96,3129.79,499.85,485.44,47.46,0000 0000 0000 0000 000000
2014-09-11 10:09:26,0.02,1.34,0.00,27.69,31.97,34.25,9.37,41.23,1009.31,2016.10,2884.00,2929.77,3129.25,500.47,485.80,47.50,0000 0000 0000 0000 000000
2014-09-11 10:14:27,0.03,1.34,0.00,27.70,31.97,34.26,9.36,41.02,1009.30,2016.13,2883.85,2929.25,3129.02,500.09,485.56,47.54,0000 0000 0000 0000 000000
2014-09-11 10:19:28,0.02,1.34,0.00,27.71,31.95,34.25,9.41,41.02,1009.30,2016.13,2883.10,2929.01,3128.96,500.22,485.66,47.58,0000 0000 0000 0000 000000
2014-09-11 10:24:29,0.02,1.34,0.00,27.70,31.95,34.24,9.34,40.99,1009.30,2016.10,2882.96,2928.98,3128.29,499.93,485.64,47.62,0000 0000 0000 0000 000000
2014-09-11 10:29:30,0.03,1.34,0.00,27.68,31.95,34.25,9.37,41.23,1009.31,2016.13,2882.23,2928.70,3128.02,500.12,485.46,47.66,0000 0000 0000 0000 000000
2014-09-11 10:34:31,0.01,1.34,0.00,27.67,31.95,34.24,9.45,41.41,1009.32,2016.13,2882.00,2928.28,3128.00,500.31,485.65,47.70,0000 0000 0000 0000 000000
2014-09-11 10:39:32,0.02,1.35,0.00,27.65,31.95,34.24,9.39,41.06,1009.33,2016.31,2881.94,2928.09,3127.99,500.22,485.67,47.75,0000 0000 0000 0000 000000
2014-09-11 10:44:33,0.02,1.35,0.00,27.66,31.95,34.23,9.35,40.84,1009.36,2016.39,2881.33,2928.01,3127.81,500.09,485.67,47.79,0000 0000 0000 0000 000000
2014-09-11 10:49:34,0.02,1.35,0.00,27.66,31.94,34.23,9.40,41.15,1009.56,2016.36,2881.01,2928.00,3127.23,500.09,485.64,47.83,0000 0000 0000 0000 000000
2014-09-11 10:54:35,0.01,1.35,0.00,27.64,31.93,34.22,9.41,40.93,1009.72,2016.34,2880.81,2927.98,3127.01,500.20,485.73,47.87,0000 0000 0000 0000 000000
2014-09-11 10:59:36,0.02,1.35,0.00,27.63,31.92,34.22,9.42,41.32,1009.67,2016.24,2880.12,2927.88,3126.98,500.02,485.54,47.91,0000 0000 0000 0000 000000
2014-09-11 11:04:37,0.05,1.35,0.00,27.62,31.92,34.23,9.34,41.22,1009.60,2016.49,2879.99,2927.42,3126.78,499.84,485.56,47.95,0000 0000 0000 0000 000000
2014-09-11 11:09:38,0.02,1.35,0.00,27.62,31.92,34.21,9.39,41.21,1009.75,2016.43,2879.40,2927.04,3126.14,500.03,485.88,48.00,0000 0000 0000 0000 000000
2014-09-11 11:14:40,-0.01,1.35,0.00,27.63,31.92,34.21,9.37,41.12,1009.78,2016.31,2879.02,2927.00,3126.00,499.86,485.78,48.04,0000 0000 0000 0000 000000
2014-09-11 11:19:40,0.01,1.35,0.00,27.62,31.92,34.21,9.40,41.20,1009.78,2016.30,2878.98,2926.95,3125.95,500.01,485.80,48.08,0000 0000 0000 0000 000000
2014-09-11 11:24:42,0.05,1.35,0.00,27.61,31.91,34.20,9.39,41.08,1009.78,2016.35,2878.29,2926.62,3125.44,499.84,485.65,48.12,0000 0000 0000 0000 000000
2014-09-11 11:29:43,0.02,1.36,0.00,27.61,31.90,34.21,9.41,41.19,1009.78,2016.43,2878.00,2926.11,3125.03,500.36,486.01,48.16,0000 0000 0000 0000 000000
2014-09-11 11:34:44,0.03,1.36,0.00,27.59,31.90,34.20,9.33,41.33,1009.78,2016.52,2877.64,2926.01,3125.00,500.02,485.91,48.20,0000 0000 0000 0000 000000
2014-09-11 11:39:45,0.02,1.36,0.00,27.59,31.90,34.19,9.37,41.21,1009.78,2016.58,2877.03,2926.00,3124.97,499.74,485.81,48.25,0000 0000 0000 0000 000000
2014-09-11 11:44:46,0.03,1.36,0.00,27.58,31.90,34.19,9.40,41.25,1009.77,2016.75,2876.92,2925.97,3124.43,500.27,486.10,48.29,0000 0000 0000 0000 000000
2014-09-11 11:49:47,0.05,1.36,0.00,27.57,31.90,34.18,9.40,41.14,1009.78,2016.86,2876.25,2925.70,3124.05,499.91,485.69,48.33,0000 0000 0000 0000 000000
2014-09-11 11:54:49,-0.00,1.36,0.00,27.55,31.88,34.18,9.30,41.27,1009.78,2016.75,2875.98,2925.06,3123.99,499.76,485.56,48.37,0000 0000 0000 0000 000000
2014-09-11 11:59:50,0.04,1.36,0.00,27.54,31.87,34.19,9.40,41.32,1009.78,2016.91,2875.34,2925.01,3123.90,500.22,486.04,48.41,0000 0000 0000 0000 000000
2014-09-11 12:04:50,0.02,1.36,0.00,27.53,31.87,34.18,9.35,41.40,1009.78,2016.96,2875.00,2925.00,3123.32,499.82,485.59,48.45,0000 0000 0000 0000 000000
2014-09-11 12:09:51,0.01,1.36,0.00,27.53,31.87,34.17,9.42,41.19,1009.77,2016.95,2874.64,2924.97,3123.03,499.87,485.81,48.49,0000 0000 0000 0000 000000
2014-09-11 12:14:53,0.03,1.37,0.00,27.50,31.87,34.15,9.48,41.45,1009.78,2016.97,2874.06,2924.65,3123.00,500.04,486.02,48.54,0000 0000 0000 0000 000000
2014-09-11 12:19:54,0.04,1.37,0.00,27.48,31.85,34.15,9.36,41.27,1009.78,2016.97,2873.68,2924.10,3122.59,499.89,485.89,48.58,0000 0000 0000 0000 000000
2014-09-11 12:24:55,0.01,1.37,0.00,27.47,31.85,34.15,9.37,41.20,1009.78,2016.99,2873.02,2924.00,3122.05,499.98,485.99,48.62,0000 0000 0000 0000 000000
2014-09-11 12:29:56,0.00,1.37,0.00,27.46,31.85,34.13,9.49,41.36,1009.78,2016.99,2872.81,2923.97,3121.99,500.43,486.53,48.66,0000 0000 0000 0000 000000
2014-09-11 12:34:57,0.04,1.37,0.00,27.44,31.84,34.14,9.39,41.15,1009.78,2016.99,2872.06,2923.53,3121.83,499.91,485.89,48.70,0000 0000 0000 0000 000000
2014-09-11 12:39:59,0.03,1.37,0.00,27.44,31.82,34.13,9.37,41.36,1009.78,2016.99,2871.86,2923.07,3121.17,500.02,486.04,48.74,0000 0000 0000 0000 000000
2014-09-11 12:45:00,0.01,1.37,0.00,27.45,31.82,34.11,9.37,41.26,1009.78,2016.99,2871.12,2923.00,3121.00,499.73,485.85,48.79,0000 0000 0000 0000 000000
2014-09-11 12:50:01,0.00,1.37,0.00,27.44,31.82,34.10,9.40,41.22,1009.78,2016.99,2870.97,2923.00,3120.98,499.82,486.01,48.83,0000 0000 0000 0000 000000
2014-09-11 12:55:02,0.03,1.37,0.00,27.43,31.81,34.12,9.33,41.12,1009.78,2016.99,2870.46,2922.92,3120.76,499.67,485.81,48.87,0000 0000 0000 0000 000000
2014-09-11 13:00:03,0.03,1.38,0.00,27.42,31.80,34.09,9.28,41.11,1009.78,2017.00,2870.00,2922.47,3120.11,499.87,485.84,48.91,0000 0000 0000 0000 000000